Flag for Canada Weather past 2 weeks in Arviat, Nunavut Territory, Canada

Now
-20 °F

Blizzard. Ice fog.


Feels Like: -53 °F
Forecast: -25 / -20 °F
Wind: 29 mph from Northwest

Location: Arviat Airport

Current Time: Mar 1, 2015 at 3:31:50 PM

Latest Report: Mar 1, 2015 at 2:00 PM


Visibility: 0 mi

Pressure: 29.86 "Hg

Humidity: 68%

Dew point: -27 °F

Location of ArviatLocation

Historic Weather in Arviat — Graph

°F

Arviat temperature yesterday

Maximum temperature yesterday: 7 °F (at 6:56 AM)
Minimum temperature yesterday: -20 °F (at 11:00 PM)
Average temperature yesterday: -6 °F

Past Weeks' High & Low Weather Summary

 TemperatureHumidityPressure
High7 °F (Feb 28, 6:56 AM)92% (Feb 23, 4:00 AM)30.64 "Hg (Feb 23, 4:00 AM)
Low-36 °F (Feb 22, 7:00 AM)59% (Feb 22, 6:00 AM)29.39 "Hg (Feb 23, 7:00 AM)
Average-19 °F73%29.98 "Hg
* Reported Feb 14 1:00 PM — Mar 1 1:00 PM, Arviat, Weather by CustomWeather, © 2015

Note: Actual official high and low records may vary slightly from our data, if they occured in-between our weather recording intervals... More about our weather records

Advertising

Arviat weather history for previous 24 hours

 ConditionsComfort  
Time TempWeatherWind HumidityBarometerVisibility
1:00 PM
Sun, Mar 1
-22 °FBlizzard. Ice fog.28 mph68%29.85 "Hg0 mi
12:00 PM-22 °FBlizzard. Ice fog.28 mph68%29.83 "Hg0 mi
11:00 AM-24 °FBlizzard. Ice fog.26 mph68%29.83 "Hg0 mi
10:00 AM-24 °FBlizzard. Ice fog.30 mph68%29.81 "Hg0 mi
9:00 AM-26 °FBlizzard. Ice fog.28 mph75%29.82 "Hg0 mi
8:04 AM-26 °FHeavy snow. Ice fog.23 mph75%29.81 "Hg0 mi
7:00 AM-26 °FHeavy snow. Ice fog.25 mph75%29.83 "Hg0 mi
6:00 AM-26 °FSnow. Ice fog.21 mph75%29.83 "Hg1 mi
5:00 AM-26 °FHeavy snow. Ice fog.25 mph75%29.81 "Hg0 mi
4:00 AM-24 °FSnow. Passing clouds.23 mph68%29.80 "Hg1 mi
3:51 AM-24 °FLight snow. Passing clouds.25 mph68%29.79 "Hg1 mi
3:00 AM-24 °FLight snow. Clear.20 mph75%29.79 "Hg1 mi
2:59 AM-24 °FLight snow. Clear.20 mph75%29.79 "Hg1 mi
2:00 AM-22 °FLight snow. Passing clouds.17 mph68%29.80 "Hg1 mi
1:00 AM-22 °FClear.14 mph75%29.80 "Hg3 mi
12:59 AM-22 °FClear.14 mph75%29.80 "Hg3 mi
12:00 AM-20 °FLight snow. Clear.16 mph75%29.80 "Hg1 mi
11:00 PM
Sat, Feb 28
-20 °FLight snow. Low level haze.24 mph75%29.79 "Hg1 mi
10:00 PM-18 °FLight snow. Ice fog.21 mph75%29.80 "Hg1 mi
9:00 PM-18 °FSnow. Ice fog.29 mph83%29.77 "Hg1 mi
8:01 PM-17 °FLight snow. Ice fog.22 mph76%29.79 "Hg1 mi
7:00 PM-17 °FSnow. Ice fog.26 mph83%29.79 "Hg1 mi
6:55 PM-15 °FSnow. Ice fog.23 mph76%29.79 "Hg1 mi
6:00 PM-15 °FHeavy snow. Ice fog.26 mph76%29.78 "Hg0 mi
5:00 PM-13 °FHeavy snow. Ice fog.25 mph76%29.76 "Hg0 mi
4:52 PM-13 °FHeavy snow. Ice fog.22 mph76%29.76 "Hg0 mi
4:00 PM-11 °FHeavy snow. Ice fog.33 mph76%29.73 "Hg0 mi
3:00 PM-9 °FBlizzard. Ice fog.31 mph77%29.71 "Hg0 mi
Weather by CustomWeather, © 2015

See weather overviewHow to use our weather pages